THORAD DELTA 1 DEB, 9696

Orbit data source: Space-Track

THORAD DELTA 1 DEB, 9696 is space debris in SSO originally from a launch on Fri, 15 Nov 1974 UTC launched from the Air Force Western Test Range (AFWTR). Debris objects in space refer to the collection of defunct objects orbiting the Earth. Examples of debris include non-operational satellites, rocket bodies, and fragments generated from explosions, collisions, or faulty payload assembly.

Loading next visibility...
Identifier
9696, 1974-089DV
Orbit
SSO
Country
Flag of USUS
Related business
Manufacturer
Unknown
Mission
Spacecraft
Bus & Motor
Unknown
Mass
Unknown
Launch date (UTC)
1974-11-15 (51 years ago)
Launch vehicle
Unknown
Launch site
Air Force Western Test Range (AFWTR)
Object type
Payload
Rocket body
Debris
Shape & HBR
Unknown shape, 0.1 m
Radar Cross Section
Small (<0.1 m²)

Expand to show TLE details & history
Last TLE update: 10 hours ago

TLE from 10 hours ago
0 THORAD DELTA 1 DEB
1  9696U 74089DV  26035.38990834  .00000167  00000-0  17893-2 0  9992
2  9696 100.8056 230.1012 0192832 194.4614 286.6784 12.22617111282800
Epoch: 2026-02-04T09:21Z
TLE epoch observation values (Epoch: 2026-02-04T09:21:28.080Z)
Latitude
59.29879°
Longitude
153.83189°
Altitude
1,549.737 km
Speed
7.116 km/s
True Right ascension
04h 35m 01s
True Declination
59° 09' 46"
Sunlit
Object was in daylight at epoch
Visualization orbit readout
Latitude
Unknown
Longitude
Unknown
Altitude
Unknown
Speed
Unknown
Apparent Right ascension
Unknown
Apparent Declination
Unknown
Sunlit
N/A
Visualization observer readout
Local Sidereal Time
21:24:44
Azimuth
Unknown
Elevation
Unknown
Doppler factor
Unknown
Orbital elements
Apogee altitude
1,732.125 km
Perigee altitude
1,425.259 km
Semi-major axis
7,956.829 km
Eccentricity
0.01928
Inclination
100.8056°
RAAN
230.1012°
Arg. of periapsis
194.4614°
True anomaly
284.54742°
Mean anomaly
286.6784°
Eccentric anomaly
285.61433°
Mean motion
3.05797 °/min
Orbital period
117.73 mins
BSTAR
0.0017893
Loading maneuver chart data...
Computing Atmospheric mass density...

Documentation

Showing up to 5 results
|